Carbondale, IL

8:37 PM CST on December 14, 2019 (GMT -0600)
Southern Illinois

Weather History for KMDH - October, 2019

Change the Weather History Date:

Monday, October 7, 2019

  Actual Average Record
Temperature  
Mean Temperature 60 °F -  
Max Temperature 75 °F 71 °F 93 °F (1939)
Min Temperature 46 °F 43 °F 25 °F (1952)
Degree Days  
Heating Degree Days 4    
Growing Degree Days 10 (Base 50)    
Moisture  
Dew Point 47 °F    
Average Humidity 68    
Maximum Humidity 93    
Minimum Humidity 22    
Precipitation  
Precipitation 0.01 in - - ()
Sea Level Pressure  
Sea Level Pressure 30.20 in    
Wind  
Wind Speed 4 mph (North)    
Max Wind Speed 9 mph    
Max Gust Speed 18 mph    
Visibility 10 miles    
Events Rain    
Averages and records for this station are not official NWS values.
T = Trace of Precipitation, MM = Missing Value Source: NWS Daily Summary

Daily Weather History Graph

Daily Weather History Graph

Search for Another Location

Airport or City:

Astronomy

Oct. 07, 2019 Rise Set
Actual Time 6:57 AM CDT 6:31 PM CDT
Civil Twilight 6:31 AM CDT 6:57 PM CDT
Nautical Twilight 6:01 AM CDT 7:27 PM CDT
Astronomical Twilight 5:30 AM CDT 7:58 PM CDT
Moon 3:45 PM CDT (10/7) 12:58 AM CDT (10/7)
Length of Visible Light 12h 26m
Length of Day
11h 33m
Waxing Gibbous, 69% of the Moon is Illuminated
Oct 7
Waxing Gibbous
Oct 13
Full
Oct 21
Last Quarter
Oct 27
New
Nov 4
First Quarter

Hourly Weather History & Observations

Time (CDT) Temp. Dew Point Humidity Pressure Visibility Wind Dir Wind Speed Gust Speed Precip Events Conditions
12:52 AM 59.0 °F 57.0 °F 93% 30.17 in 8.0 mi Calm Calm - 0.01 in Rain Light Rain
1:52 AM 59.0 °F 57.0 °F 93% 30.17 in 10.0 mi North 3.5 mph - 0.00 in   Overcast
2:52 AM 59.0 °F 55.9 °F 90% 30.19 in 10.0 mi Calm Calm - 0.00 in Rain Light Rain
3:52 AM 57.9 °F 55.9 °F 93% 30.18 in 10.0 mi NNW 4.6 mph - 0.00 in   Clear
4:52 AM 57.0 °F 55.0 °F 93% 30.18 in 10.0 mi NNW 5.8 mph - N/A   Clear
5:52 AM 55.9 °F 53.1 °F 90% 30.18 in 10.0 mi NNW 5.8 mph - N/A   Clear
6:52 AM 54.0 °F 50.0 °F 86% 30.20 in 10.0 mi NNW 3.5 mph - N/A   Clear
7:52 AM 53.1 °F 50.0 °F 89% 30.22 in 10.0 mi NNW 3.5 mph - N/A   Clear
8:52 AM 57.0 °F 50.0 °F 77% 30.24 in 10.0 mi North 4.6 mph - N/A   Clear
9:52 AM 63.0 °F 50.0 °F 63% 30.25 in 10.0 mi North 8.1 mph - N/A   Clear
10:52 AM 64.9 °F 46.9 °F 52% 30.26 in 10.0 mi North 8.1 mph - N/A   Clear
11:52 AM 69.1 °F 46.0 °F 44% 30.25 in 10.0 mi North 9.2 mph - N/A   Clear
12:52 PM 72.0 °F 43.0 °F 35% 30.23 in 10.0 mi North 8.1 mph - N/A   Clear
1:52 PM 73.0 °F 37.9 °F 28% 30.21 in 10.0 mi ENE 9.2 mph 18.4 mph N/A   Clear
2:52 PM 73.9 °F 39.0 °F 28% 30.19 in 10.0 mi North 4.6 mph - N/A   Clear
3:52 PM 75.0 °F 33.1 °F 22% 30.17 in 10.0 mi NNE 8.1 mph - N/A   Clear
4:52 PM 73.9 °F 36.0 °F 25% 30.17 in 10.0 mi NE 8.1 mph - N/A   Clear
5:52 PM 71.1 °F 37.9 °F 30% 30.17 in 10.0 mi NE 5.8 mph - N/A   Clear
6:52 PM 59.0 °F 46.9 °F 64% 30.18 in 10.0 mi Calm Calm - N/A   Clear
7:52 PM 54.0 °F 48.0 °F 80% 30.19 in 10.0 mi Calm Calm - N/A   Clear
8:52 PM 51.1 °F 46.9 °F 86% 30.20 in 10.0 mi Calm Calm - N/A   Clear
9:52 PM 50.0 °F 46.9 °F 89% 30.21 in 10.0 mi Calm Calm - N/A   Clear
10:52 PM 46.9 °F 45.0 °F 93% 30.21 in 10.0 mi SE 4.6 mph - N/A   Clear
11:52 PM 46.0 °F 44.1 °F 93% 30.21 in 10.0 mi Calm Calm - N/A   Clear